Location: Burleson Alternative School
(32.5290°N, 97.3406°W)
Time: 07:59:20
(UTC+00:00)

Tiros 1 despin weight - Pass Details

Date: 13 November 2024
Orbit: 570 x 609 km, 48.2° (Epoch: 05 December)

Event Time Altitude Azimuth Distance (km) Brightness Sun altitude
Exits shadow 12:18:56 - 313° (NW) 2,085 ? -8.6°
Reaches altitude 10° 12:19:48 10° 323° (NW) 1,926 ? -8.4°
Maximum altitude 12:21:36 12° 347° (NNW) 1,780 ? -8.1°
Drops below altitude 10° 12:23:23 10° 11° (NNE) 1,915 ? -7.7°
Sets 12:27:02 0° 43° (NE) 2,805 ? -7.0°
